Torna al catalogo

SL-12 DEB

AttivoHEO
NORAD 41692·DEBRIS·🇷🇺 Russia

Lanciato Oct 26, 2007 da Baikonur Cosmodrome

Loading…

Prossimi Passaggi (prossime 24 ore)

TLE

AggiornatoSource: Space-Track

Epoca: Sep 13, 2026, 00:10 UTC

1 41692U 07052Z   26256.00717477  .00000265  00000-0  42598-3 0  9994
2 41692  65.3645 187.9718 5628226 232.3276  62.1839  4.42177253 91688

Traccia SL-12 DEB in tempo reale con AllMySat

Download on the App Store